OpenBCM V1.13 (Linux)

Packet Radio Mailbox

DB0FHN

[JN59NK Nuernberg]

 Login: GUEST





  
WG3K   > KEPS     16.11.24 02:42l 367 Lines 17532 Bytes #999 (0) @ AMSAT
BID : ORB24321.1
Read: DL5MBW DJ6UX GUEST
Subj: 2Line Orbital Elements 24321.AMSAT
Path: DB0FHN<DB0RKB<DK0WUE<DB0ERF<IZ3LSV<I0OJJ<EA2RCF<LU9DCE<W0ARP<K7EK<
      KA1VSC<WG3K
Sent: 241116/0034Z 10025@WG3K.#SMD.MD.USA.NOAM LinBPQ6.0.24


QST de W1STR

AMSAT Orbital Elements for Amateur Satellites in TLE Format
From Orbital Analysis Office
New England Sci-Tech STEM Education Center
Natick, MA November 16, 2024
To all radio amateurs


These element sets describe the orbits of various satellites 
in use by the amateur radio community. For details see:
www.amsat.org/keplerian-elements-formats/

A daily update of element sets is available at:
www.amsat.org/tle/daily-bulletin.txt
or without bulletin text:
www.amsat.org/tle/dailytle.txt


AO-07
1 07530U 74089B   24320.53863985 -.00000028  00000-0  11673-3 0  9993
2 07530 101.9894 316.6623 0012237 154.3057 322.7604 12.53682600288001
UO-11
1 14781U 84021B   24320.46609915  .00003870  00000-0  42695-3 0  9994
2 14781  97.7266 285.4791 0006439 306.8341  53.2285 14.88031175170970
AO-27
1 22825U 93061C   24320.40244355  .00000355  00000-0  15310-3 0  9992
2 22825  98.7691  14.6168 0008379   4.6139 355.5119 14.30656200624230
FO-29
1 24278U 96046B   24320.32289141  .00000042  00000-0  76690-4 0  9997
2 24278  98.5855 235.1829 0350440 156.6564 205.0933 13.53221679394876
NOAA-15
1 25338U 98030A   24320.79236337  .00000435  00000-0  19730-3 0  9997
2 25338  98.5563 344.6853 0009313 238.2990 121.7283 14.26797011379057
GO-32
1 25397U 98043D   24320.50422310  .00000298  00000-0  14940-3 0  9998
2 25397  98.9443 289.6518 0002394  84.3161 275.8290 14.24190175368953
ISS
1 25544U 98067A   24320.65412037  .00016887  00000-0  30487-3 0  9994
2 25544  51.6415 284.9732 0007831 218.9449 123.5140 15.49822126482038
NO-44
1 26931U 01043C   24320.69495993  .00000603  00000-0  25784-3 0  9992
2 26931  67.0504 300.0696 0007286 262.4183  97.6091 14.31498703207795
SO-50
1 27607U 02058C   24320.46946579  .00003219  00000-0  43619-3 0  9999
2 27607  64.5529 116.1340 0031491  34.0777 326.2341 14.80300174178709
CO-55
1 27844U 03031E   24320.50055399  .00000920  00000-0  42223-3 0  9996
2 27844  98.6785 325.4733 0010791  68.2667 291.9660 14.23641500109313
CO-57
1 27848U 03031J   24320.49662819  .00000760  00000-0  35639-3 0  9994
2 27848  98.6814 325.6225 0010748  83.1644 277.0756 14.23028721109057
RS-22
1 27939U 03042A   24320.83008448  .00003144  00000-0  51840-3 0  9998
2 27939  98.3068 119.7282 0010829 304.4607 184.4299 14.71181758130565
NOAA-18
1 28654U 05018A   24320.78050288  .00000467  00000-0  27155-3 0  9998
2 28654  98.8634  36.4135 0013984 357.5820   2.5282 14.13421637  4670
CO-58
1 28895U 05043F   24320.37853923  .00004344  00000-0  74244-3 0  9994
2 28895  98.2221  96.7706 0014375 238.1489 121.8317 14.69347571 16645
CO-65
1 32785U 08021C   24320.48749945  .00009571  00000-0  76676-3 0  9994
2 32785  97.7719 285.0481 0010852 181.8313 178.2872 15.00310886898132
AAUSAT2
1 32788U 08021F   24320.49873137  .00060314  00000-0  18827-2 0  9994
2 32788  97.6038 302.6688 0006190  50.9296 309.2496 15.32967908901365
CO-66
1 32791U 08021J   24320.64479894  .00019861  00000-0  12198-2 0  9993
2 32791  97.7081 291.6976 0006585 128.1399 232.0424 15.10106487899403
RS-30
1 32953U 08025A   24320.77702733  .00000046  00000-0  25953-3 0  9991
2 32953  82.5051 355.2007 0020494 132.6659 227.6152 12.43153154747965
PRISM
1 33493U 09002B   24320.15721416  .00066394  00000-0  18838-2 0  9999
2 33493  98.1823  22.1734 0008222  85.0265 275.1915 15.35944416862068
NOAA-19
1 33591U 09005A   24320.75399515  .00000435  00000-0  25650-3 0  9993
2 33591  99.0285  18.0268 0013213 221.8731 138.1431 14.13200691813038
SRMSAT
1 37841U 11058D   24320.73660654  .00000685  00000-0  22926-3 0  9999
2 37841  19.9732 320.0625 0011593 321.6810 196.1271 14.11284866676214
RS-40
1 38735U 12041C   24320.62581619  .00000027  00000-0  12381-3 0  9990
2 38735  82.4760  75.4527 0016787 246.9744 112.9565 12.42620450557989
ZACUBE-1
1 39417U 13066B   24320.41796989  .00011949  00000-0  11370-2 0  9992
2 39417  97.7536 273.4517 0048595  22.0425 338.2869 14.92675714594113
Delfi-N3xt
1 39428U 13066N   24320.49753621  .00016432  00000-0  18816-2 0  9992
2 39428  97.8356 235.2153 0092150 318.1161  41.3027 14.82961327588477
GOMX-1
1 39430U 13066Q   24320.75446126  .00004486  00000-0  72101-3 0  9997
2 39430  97.7065 185.9263 0137186 129.7801 231.5579 14.65909139585235
LO-74
1 39440U 13066AA  24320.75267334  .00007933  00000-0  86751-3 0  9996
2 39440  97.8280 261.5283 0067469 136.2581 224.4008 14.86424882592026
AO-73
1 39444U 13066AE  24320.57715941  .00016356  00000-0  14073-2 0  9998
2 39444  97.7395 277.2214 0044536   0.5595 359.5668 14.96682837592717
DTUSAT-2
1 40030U 14033W   24320.41819340  .00013677  00000-0  10226-2 0  9996
2 40030  98.0317 277.4475 0012352  46.2545 313.9699 15.02843581565375
EO-80
1 40032U 14033Y   24320.84866123  .00015512  00000-0  11578-2 0  9997
2 40032  98.0174 277.8220 0009171 347.3197  12.7794 15.02905142565937
XW-2C
1 40906U 15049H   24320.77842639  .00112861  00000-0  11999-2 0  9995
2 40906  97.4603 343.2785 0007504 105.0406 255.1683 15.63635287507967
LILACSAT-2
1 40908U 15049K   24320.79861417  .00018193  00000-0  59561-3 0  9995
2 40908  97.5201 331.1065 0011322 164.5995 195.5593 15.31670222506652
XW-2B
1 40911U 15049N   24320.81228187  .01139709  75780-3  15125-2 0  9998
2 40911  97.4422 349.0065 0002366 163.6198 196.5160 16.06908675508271
IO-86
1 40931U 15052B   24319.48411443  .00002079  00000-0  19166-3 0  9992
2 40931   6.0011 358.4542 0012341  51.4331 308.6901 14.78346323493730
ChubuSat-2
1 41338U 16012B   24320.74799959  .00011034  00000-0  62541-3 0  9999
2 41338  30.9979 133.1502 0010589 323.6199  36.3719 15.11698056480529
ChubuSat-3
1 41339U 16012C   24320.83145847  .00009547  00000-0  55521-3 0  9997
2 41339  31.0046 132.2738 0010769 326.5380  33.4577 15.10736960480506
Horyu-4
1 41340U 16012D   24320.60261045  .00027841  00000-0  11026-2 0  9991
2 41340  31.0014  63.8737 0009872  83.6321 276.5445 15.24203581481205
Lapan A3
1 41603U 16040E   24320.83006026  .00006520  00000-0  24579-3 0  9994
2 41603  97.1394 327.8637 0009631 286.0620  73.9559 15.27346888466352
Pratham
1 41783U 16059A   24320.46200474  .00001895  00000-0  35463-3 0  9999
2 41783  97.8307 332.7258 0030586 260.0844  99.6907 14.65652565434696
CAS-2T
1 41847U 16066G   24320.46323814  .00002377  00000-0  34776-3 0  9994
2 41847  98.4460  30.6217 0351140  81.4522 282.6287 14.42402787421294
CAS-4B
1 42759U 17034B   24320.70536187  .00040228  00000-0  10184-2 0  9992
2 42759  43.0143  84.5280 0014824 300.2468  59.6921 15.38962982410654
CAS-4A
1 42761U 17034D   24320.75602149  .00043301  00000-0  10849-2 0  9995
2 42761  43.0179  82.4309 0015302 309.0777  50.8718 15.39243731410671
D-SAT
1 42794U 17036AF  24320.37596051  .00015860  00000-0  99735-3 0  9996
2 42794  97.4923 297.1483 0102490 355.1474   4.8749 15.04966460403427
TechnoSat
1 42829U 17042E   24320.44950854  .00007010  00000-0  58196-3 0  9999
2 42829  97.3895 133.3337 0010205 289.1716  70.8403 14.99018785399817
AO-91
1 43017U 17073E   24320.59434443  .00016087  00000-0  89763-3 0  9998
2 43017  97.5487 190.9935 0196501 144.9322 216.5024 14.98599182378295
S-Net D
1 43186U 18014G   24320.47897933  .00010826  00000-0  70818-3 0  9991
2 43186  97.5765 219.8235 0008727 201.9932 158.0923 15.07918859371274
S-Net B
1 43187U 18014H   24320.48217365  .00010787  00000-0  70580-3 0  9990
2 43187  97.5767 219.7870 0009632 197.4634 162.6264 15.07905175371271
S-Net A
1 43188U 18014J   24320.47994250  .00010784  00000-0  70529-3 0  9995
2 43188  97.5777 219.9107 0009440 198.1160 161.9733 15.07921610371272
S-Net C
1 43189U 18014K   24320.28510902  .00010398  00000-0  68034-3 0  9992
2 43189  97.5788 219.6963 0011353 192.4991 167.5958 15.07899864369797
Ten-Koh
1 43677U 18084G   24320.40659094  .00006763  00000-0  57345-3 0  9995
2 43677  98.0808 118.7826 0011860 232.2884 127.7263 14.98244858329342
PO-101
1 43678U 18084H   24320.78483144  .00003694  00000-0  32949-3 0  9991
2 43678  98.0853 123.5205 0008029 247.3635 112.6736 14.96620244329581
QO-100
1 43700U 18090A   24320.82879255  .00000152  00000-0  00000+0 0  9996
2 43700   0.0165 293.0203 0001972 335.7102 110.8422  1.00270074 22123
MinXSS-2
1 43758U 18099A   24320.13812449  .00022328  00000-0  11659-2 0  9998
2 43758  97.5347  20.6404 0014786 155.1657 205.0290 15.15829807325594
AO-95
1 43770U 18099N   24320.60318678  .00015423  00000-0  92906-3 0  9992
2 43770  97.5255  15.5100 0011859 199.1525 160.9261 15.10823188325387
RANGE-B
1 43772U 18099Q   24320.42360759  .00027593  00000-0  13571-2 0  9992
2 43772  97.5047  19.6059 0005237 102.8779 257.3040 15.17971565325590
RANGE-A
1 43773U 18099R   24320.42698570  .00010110  00000-0  70525-3 0  9998
2 43773  97.4818   8.9157 0012353 173.3441 186.7953 15.05513312325162
MOVE-II
1 43780U 18099Y   24320.42943804  .00053695  00000-0  18385-2 0  9999
2 43780  97.5008  23.1002 0004942 162.9244 197.2164 15.30025971325922
SNUSat 2
1 43782U 18099AA  24320.59942536  .00013540  00000-0  85252-3 0  9993
2 43782  97.4939  13.7752 0014333 140.1881 220.0403 15.09209343325376
SnugLite
1 43784U 18099AC  24320.60728846  .00016101  00000-0  96384-3 0  9997
2 43784  97.4756  13.0865 0004857 136.3029 223.8586 15.11088541325465
ITASat 1
1 43786U 18099AE  24320.62288585  .00012395  00000-0  80191-3 0  9992
2 43786  97.4910  13.8085 0015565 190.6490 169.4411 15.08218720325365
EAGLET 1
1 43790U 18099AJ  24320.59004852  .00008793  00000-0  60980-3 0  9997
2 43790  97.5088  14.2046 0013177 169.4372 190.7134 15.05763178325031
ESEO
1 43792U 18099AL  24320.60343095  .00004261  00000-0  33689-3 0  9998
2 43792  97.4889   9.9515 0009066 128.9206 231.2828 15.01125772324905
